OBJECT B, 54252

Orbit data source: Space-Track

You're viewing an Uncataloged Satellite

Recently launched and/or uncataloged satellites may have evolving metadata. Metadata may include but not limited to: Owner, Maufacturer, Bus, Motor, and Mission.

OBJECT B, 54252 is a Chinese satellite in SSO that was launched on Wed, 16 Nov 2022 UTC via a GUSHENXING 1 launch vehicle from the Jiuquan Satellite Launch Center, China (JSC). Unknown objects in Earth's orbit typically refer to objects detected orbiting the Earth but have not yet been identified or cataloged. These objects could be anything from previously untracked satellites, spent rocket stages, debris from satellite collisions, or even natural meteoroids temporarily captured by Earth's gravity.

Loading next visibility...
Identifier
54252, 2022-155B
Orbit
SSO
Country
Flag of CNCN / PRC
Related business
None
Manufacturer
Unknown
Mission
Operational Commercial Imaging
Bus & Motor
Unknown
Mass
Unknown
Launch date (UTC)
2022-11-16 (4 years ago)
Launch vehicle
GUSHENXING 1
Launch site
Jiuquan Satellite Launch Center, China (JSC)
Object type
Unknown
Shape & HBR
Box + 2 Pan, 0.8 m
Radar Cross Section
2.000 m², Medium (>0.1 m² and < 1m²)

Expand to show TLE details & history
Last TLE update: 22 hours ago

TLE from 22 hours ago
0 OBJECT B
1 54252U 22155B   26172.51676080  .00044354  00000-0  49840-3 0  9992
2 54252  97.6232 317.6618 0003146 329.7830  30.3245 15.62493092200423
Epoch: 2026-06-21T12:24Z
TLE epoch observation values (Epoch: 2026-06-21T12:24:08.133Z)
Latitude
-0.00006°
Longitude
-138.08798°
Altitude
381.764 km
Speed
7.682 km/s
True Right ascension
21h 10m 38s
True Declination
0° 00' 00"
Sunlit
Object was in full shadow at epoch
Visualization orbit readout
Latitude
Unknown
Longitude
Unknown
Altitude
Unknown
Speed
Unknown
Apparent Right ascension
Unknown
Apparent Declination
Unknown
Sunlit
N/A
Visualization observer readout
Local Sidereal Time
21:29:39
Azimuth
Unknown
Elevation
Unknown
Doppler factor
Unknown
Orbital elements
Apogee altitude
379.503 km
Perigee altitude
375.252 km
Semi-major axis
6,755.514 km
Eccentricity
0.00031
Inclination
97.6232°
RAAN
317.6618°
Arg. of periapsis
329.783°
True anomaly
30.34271°
Mean anomaly
30.3245°
Eccentric anomaly
30.3336°
Mean motion
3.90891 °/min
Orbital period
92.1 mins
BSTAR
0.0004984
Loading maneuver chart data...
Computing Atmospheric mass density...
Loading historical data...
Loading historical data...
Loading historical data...
Loading historical data...
Loading historical data...
Loading historical data...
Loading historical data...
Other satellites on launch #155 in the year 2022 (2022-11-16 UTC)

Documentation

Showing up to 5 results
|